Location: Forst
(46.9333°N, 15.4333°E)
Time: 04:41:13
(UTC+00:00)

Envisat - Pass Details

Date: 30 September 2021
Orbit: 764 x 766 km, 98.2° (Epoch: 26 October)

Event Time Altitude Azimuth Distance (km) Brightness Sun altitude
Rises 02:31:47 0° 34° (NE) 3,241 7.2 -24.8°
Reaches altitude 10° 02:36:32 10° 75° (ENE) 2,306 6.5 -24.0°
Maximum altitude 02:37:26 10° 85° (E) 2,274 6.4 -23.9°
Drops below altitude 10° 02:38:20 10° 95° (E) 2,303 6.3 -23.7°
Sets 02:43:01 0° 135° (SE) 3,220 6.5 -23.0°
